Reflectivity
-20 -2 14 3 14 -4 6 -20 -20 -9 -2 -20 -20 -20 -20 -20 -20 -20 -20 -20 -20 -19 -19 -20 -20 -20 -3 -20 19 13 7 20 23 23 18 20 29 10
-20 -13 -9 0 -0 3 -0 -17 -20 -20 -20 -20 -20 -20 -20 -20 -20 -20 -20 -20 -11 5 6 -9 -12 -4 -8 -20 1 15 12 19 29 19 6 22 25 7
-20 -20 -20 -20 -20 -20 -20 -20 -20 -20 -20 -20 -8 -20 -20 -20 -20 -20 -9 -20 -20 1 -8 12 4 5 18 -0 18 20 17 22 18 17 12 17 8 15
-20 -20 -20 -20 -20 -20 -20 -20 -20 -20 -20 -5 -20 -20 -20 -20 -20 -20 -20 -20 -20 -8 4 -0 3 -20 -17 -10 -20 -19 -20 -20 -20 -20 -9 -20 0 15
-20 -20 -20 -20 -20 -20 -20 -20 -20 -20 -20 -20 -9 -20 -20 -20 -19 -20 -20 -20 -20 -20 -20 -20 -4 -12 0 -9 -9 -20 -20 -20 -20 -20 -20 -20 -14 7
-20 -20 -20 -20 -20 -20 -20 -20 -20 -20 -20 -20 -20 -20 -20 -20 -20 -20 -20 -20 -20 -20 -20 -20 -20 -20 -20 -20 -20 -18 -13 -20 -20 -20 -20 -3 -20 -20
-20 -20 -20 -17 -15 -20 -20 -20 -20 -20 -20 -20 -20 -20 -20 -20 -20 -20 -20 -20 -20 -20 -20 -20 -20 -20 -20 -20 -20 -20 -20 -20 -20 -20 -17 -20 -20 -20
-20 -20 -20 -6 -20 4 -20 -20 -20 -20 -20 -20 -20 -20 -20 -20 -20 -20 -20 -20 -20 -20 -20 -20 -20 -20 -20 -20 -20 -20 -20 -20 -20 -20 -20 -20 -20 -20
-20 -20 -20 -20 -20 -20 -20 -20 -20 -20 -20 -20 -20 -20 -20 -20 -20 -20 -20 -20 -20 -20 -20 -20 -20 -20 -20 -20 -20 -20 -20 -20 -20 -20 -20 -20 -20 -20
-20 -20 -20 -20 -20 -20 -20 -20 -20 -20 -20 -20 -20 -20 -20 -20 -20 -20 -20 -20 -20 -20 -20 -20 -20 -20 -20 -20 -20 -20 -20 -20 -20 -20 -20 -5 -13 7
-20 -20 -20 -20 -20 -20 -20 -20 -20 -20 -20 -20 -20 -20 -20 -20 -20 -20 -20 -20 -20 -20 -20 -20 -20 -20 -20 -20 -20 -20 -20 -20 -20 -20 -18 1 10 9
-20 -20 -20 -20 -20 -20 -20 -20 -20 -20 -20 -20 -20 -20 -20 -20 -20 -20 -20 -20 -20 -20 -20 -20 -20 -20 -20 -20 -20 -20 -20 -20 -20 -20 -20 -16 8 -17
-20 -20 -20 -20 -20 -20 -20 -20 -20 -20 -20 -20 -20 -20 -20 -20 -20 -20 -20 -20 -20 -20 -20 -20 -14 -20 -20 -20 -20 -20 -20 -20 -20 -20 -20 -20 -20 -20
-20 -20 -20 -20 -20 -20 -20 -20 -20 -20 -20 -20 -20 -20 -20 -20 -20 -20 -20 -20 -20 -20 -20 -20 -6 -7 -15 -15 -20 -20 -20 -20 -20 -20 -20 -20 -20 -20
-20 -20 -20 -20 -20 -20 -20 -20 -20 -20 -20 -20 -20 -20 -20 -20 -20 -20 -20 -20 -20 -20 -20 -20 -13 -20 -20 -20 -20 -20 -20 -20 -20 -20 -20 -20 -20 -20
-20 -20 -20 -20 -20 -20 -20 -20 -20 -20 -20 -20 -20 -20 -20 -20 -20 -20 -20 -20 -17 -20 -20 -20 -11 -20 -20 -20 -7 -20 -20 -18 -20 -20 -20 -20 -20 -20
-20 -20 -20 -20 -20 -20 -20 -20 -20 -20 -20 -20 -20 -20 -20 -20 -20 -20 -20 -20 -20 -20 -20 -20 -20 -20 -20 -20 -20 -20 -20 -20 -20 -20 -13 -20 -20 -20
-20 -20 -20 -20 -20 -20 -20 -20 -20 -20 -20 -20 -20 -20 -20 -20 -20 -20 -20 -20 -20 -20 -20 -20 -20 -20 -20 -20 -20 -20 -20 -20 -20 -20 -9 -8 -20 -20
-20 -20 -20 -20 -20 -20 -20 -20 -20 -20 -20 -20 -20 -20 -20 -20 -20 -20 -20 -20 -20 -20 -20 -20 -20 -20 -20 -20 -20 -20 -20 -20 -13 -5 -19 -3 -1 -20
-20 -20 -20 -20 -20 -20 -20 -20 -20 -20 -20 -20 -20 -20 -20 -20 -20 -20 -20 -20 -20 -20 -20 -20 -20 -16 -18 -20 -17 -20 -20 -20 -20 -20 -20 -20 -20 -20
-20 -20 -20 -20 -20 -20 -20 -20 -20 -20 -20 -20 -20 -20 -20 -20 -20 -20 -20 -20 -20 -20 -20 -20 -20 -13 -6 4 -13 -20 -20 -20 -20 -14 -11 3 -16 -20
-20 -20 -20 -20 -20 -20 -20 -20 -20 -20 -20 -20 -20 -20 -20 -20 -20 -20 -20 -20 -20 -20 -20 -20 -20 -20 -20 -20 -20 -20 -20 -20 -20 -20 -20 -19 -20 -20
-20 -20 -20 -20 -20 -20 -20 -20 -20 -20 -20 -20 -20 -20 -20 -20 -20 -20 -20 -20 -20 -19 -20 -20 -10 -5 -19 -20 -19 -20 -20 -20 -20 -20 -20 -20 -20 -20
Wind_Speed
4 5 4 4 3 2 1 1 2 3 5 3 2 5 5 4 8 7 7 10 10 12 14 14 13 12 2 4 2 13 12 12 7 4 3 7 10 13
3 5 4 3 3 3 3 2 1 1 2 3 2 3 4 4 6 7 7 6 11 14 20 12 6 2 13 15 13 10 8 6 4 1 5 9 12 13
5 5 5 4 3 3 2 3 3 1 2 2 1 3 3 6 5 5 4 4 4 12 13 15 17 16 13 10 6 7 6 4 3 5 10 10 11 9
5 5 4 2 4 4 3 4 2 2 2 3 2 2 3 5 4 4 4 4 5 8 9 9 10 9 7 6 5 4 3 4 6 5 7 7 11 8
5 6 5 5 5 4 5 4 3 2 1 1 2 2 2 4 3 4 4 5 3 7 6 5 6 6 4 4 6 10 6 4 2 2 2 2 5 9
7 7 6 6 5 5 5 4 3 2 2 2 2 1 1 1 2 3 2 1 3 3 3 4 5 4 5 5 4 4 3 2 3 4 6 8 10 12
7 8 8 8 10 7 3 4 3 2 1 1 2 2 1 1 2 3 4 4 2 4 4 3 5 4 2 1 2 3 5 7 9 10 11 12 13 13
6 6 6 8 8 7 8 8 5 2 1 0 2 1 1 1 1 3 3 4 2 3 6 5 4 5 4 4 7 9 10 12 12 13 13 13 14 15
5 4 4 4 5 4 5 5 5 6 6 2 0 1 1 2 3 3 3 3 4 4 6 4 3 4 3 4 4 9 10 11 11 11 12 13 13 14
5 4 4 3 4 3 2 2 2 3 4 3 3 1 1 1 2 2 4 5 5 2 4 3 3 4 4 4 2 5 8 8 10 10 11 12 13 12
3 3 2 3 5 2 3 1 1 1 2 3 4 4 4 4 5 4 4 3 4 1 1 3 3 6 4 3 1 2 6 6 7 9 8 7 7 9
4 3 1 1 2 4 1 2 3 2 2 3 3 3 3 1 1 3 2 3 3 3 2 4 5 5 4 1 3 4 4 3 5 5 7 9 10 5
3 3 3 2 2 1 3 2 3 3 2 4 3 2 1 1 0 1 1 2 3 3 4 2 3 4 3 5 5 5 5 3 4 5 9 12 13 12
3 3 3 3 2 3 4 3 1 3 3 3 3 3 2 2 2 2 3 4 4 6 6 2 3 4 5 5 6 3 5 6 6 6 5 8 12 15
3 3 3 2 1 2 3 3 3 3 3 4 4 3 3 2 3 4 4 4 7 7 6 7 6 6 5 6 8 8 8 4 7 7 6 6 6 6
5 4 3 2 2 2 2 4 4 3 4 4 4 3 3 3 4 3 4 4 5 6 3 6 7 7 7 8 9 10 9 7 4 6 7 7 8 9
4 3 4 4 4 4 4 4 4 4 5 4 4 4 4 4 4 4 4 5 6 6 6 5 7 8 9 10 10 10 10 9 7 7 8 9 9 9
6 5 5 4 4 4 5 5 5 5 5 5 5 5 5 5 5 5 6 6 7 7 6 5 5 6 7 9 19 11 9 8 7 7 8 9 10 8
7 6 6 5 5 5 5 5 5 5 3 5 5 5 5 5 6 6 6 7 8 8 7 6 6 6 8 10 6 19 9 8 7 8 8 9 10 10
6 7 7 6 6 6 6 6 5 5 5 6 6 6 6 6 6 7 7 8 8 8 8 7 7 8 9 9 8 8 10 9 9 10 10 10 11 20
6 7 7 6 6 6 6 6 6 6 6 6 6 6 6 6 7 7 8 11 12 9 10 9 7 12 7 7 8 10 9 20 20 12 9 10 12 12
6 7 6 6 6 6 6 6 6 6 7 7 7 7 7 7 8 8 8 8 8 9 9 8 8 7 7 9 11 13 11 10 13 20 22 22 9 8
7 7 6 6 6 6 6 6 7 7 7 7 7 7 7 7 8 8 8 9 9 9 10 9 8 8 10 9 14 12 16 14 11 11 10 21 28 31
Wind_Direction
52 46 66 30 41 46 164 154 181 201 231 167 203 54 13 7 13 357 8 10 0 352 320 297 300 311 8 33 172 118 100 79 79 72 337 282 281 281
54 85 83 91 83 72 86 116 98 261 243 7 75 17 7 13 17 9 13 8 30 24 30 24 321 160 103 96 91 78 73 86 73 12 265 273 274 282
67 74 78 72 88 85 96 85 100 159 219 121 69 9 353 0 3 360 355 18 22 22 32 36 47 53 56 66 72 98 115 130 194 253 269 290 299 283
81 89 76 73 80 61 71 78 92 47 259 210 63 12 12 0 343 341 353 6 346 11 7 25 31 38 46 42 32 21 360 327 300 279 273 287 284 300
73 74 64 63 66 59 60 65 64 54 46 208 102 47 32 18 335 325 351 348 354 354 4 22 22 21 3 21 37 44 38 36 17 43 16 323 280 276
74 64 64 70 76 73 72 71 63 77 68 100 98 99 0 356 291 341 312 334 354 353 13 14 16 26 30 28 25 31 8 343 288 266 260 262 265 262
90 83 61 71 81 77 84 71 63 69 57 170 169 195 237 252 306 298 298 324 45 4 349 7 349 352 10 247 288 282 311 296 285 278 270 263 264 262
102 77 68 51 49 59 65 57 37 19 111 242 210 240 168 293 303 342 332 336 319 78 339 318 341 315 311 304 336 314 303 286 274 270 269 270 269 266
106 95 76 66 56 48 59 60 47 63 41 318 304 15 257 360 6 306 333 309 308 341 323 304 350 307 312 302 321 310 299 284 281 271 265 259 255 250
96 92 114 115 84 63 67 62 28 42 44 37 34 40 352 283 286 277 310 307 281 275 332 288 355 317 324 307 19 318 351 304 269 264 260 259 259 262
133 152 138 137 112 70 51 24 246 203 100 27 360 345 332 313 297 284 291 309 302 323 29 310 337 319 307 294 9 299 322 323 322 259 268 295 287 274
180 179 176 262 146 157 312 319 287 290 279 283 268 249 265 210 305 289 286 269 290 285 89 314 341 358 318 245 268 307 303 272 291 286 285 280 275 278
202 194 185 239 219 219 219 304 313 307 244 286 284 259 263 243 161 30 345 266 263 263 56 320 299 311 285 301 305 298 301 287 291 269 249 253 255 258
215 206 186 246 272 266 209 273 164 259 281 281 273 258 257 259 256 294 301 287 270 270 303 292 270 277 292 289 276 294 292 292 283 280 280 275 265 258
221 219 211 214 282 235 244 221 203 250 264 260 258 255 255 286 289 253 233 245 256 252 253 242 247 261 254 258 281 294 304 301 297 278 264 257 263 265
214 219 225 273 284 280 225 214 239 245 257 261 260 261 258 247 256 247 268 279 285 278 205 223 240 244 256 253 261 271 267 267 268 273 281 279 268 258
209 221 227 228 240 228 230 239 235 233 239 250 252 254 254 254 256 262 268 277 268 271 268 216 223 248 259 258 266 259 267 265 262 268 267 270 267 261
218 237 241 240 242 241 237 241 236 241 244 247 249 254 263 264 266 265 259 258 266 271 270 261 261 272 277 249 225 255 266 269 273 271 268 267 270 260
235 239 247 245 244 240 240 241 244 239 248 247 255 258 262 266 269 266 265 264 265 267 270 267 257 254 263 270 271 210 253 273 278 271 264 257 264 265
231 239 244 244 241 241 239 240 243 242 237 246 247 250 253 256 260 259 258 261 268 274 276 266 250 244 248 261 279 280 236 261 264 268 270 267 265 269
225 236 241 242 237 235 237 238 238 243 247 250 249 248 248 248 255 257 260 262 264 265 267 265 262 262 257 261 251 259 260 242 244 254 269 278 282 277
235 237 237 234 233 231 231 233 236 238 241 243 247 247 247 245 254 260 262 268 267 265 269 277 282 272 257 252 264 275 275 273 267 263 256 247 251 266
234 233 233 231 228 229 229 231 233 242 245 247 248 247 245 247 247 253 261 261 264 266 270 273 275 270 263 259 266 272 273 275 275 275 261 251 251 255